EN

Hourly Weather Lachy

Today, 30 July, Friday

Time Temperature Precipitation Wind Pressure Humidity
00:00 +20°C° 0 mm 2 mps 745 mmHg 70%
01:00 +20°C° 0 mm 3 mps 745 mmHg 69%
02:00 +19°C° 0 mm 3 mps 745 mmHg 70%
03:00 +19°C° 0 mm 3 mps 745 mmHg 71%
04:00 +18°C° 0 mm 2 mps 745 mmHg 73%
05:00 +18°C° 0 mm 2 mps 745 mmHg 75%
06:00 +19°C° 0 mm 2 mps 745 mmHg 72%
07:00 +20°C° 0 mm 3 mps 745 mmHg 70%
08:00 +21°C° 0 mm 3 mps 745 mmHg 67%
09:00 +22°C° 0 mm 3 mps 745 mmHg 61%
10:00 +23°C° 0 mm 4 mps 745 mmHg 54%
11:00 +26°C° 0 mm 5 mps 745 mmHg 48%
12:00 +26°C° 0 mm 5 mps 744 mmHg 47%
13:00 +26°C° 0 mm 5 mps 744 mmHg 47%
14:00 +26°C° 0 mm 5 mps 744 mmHg 46%
15:00 +26°C° 0 mm 5 mps 744 mmHg 48%
16:00 +25°C° 0 mm 5 mps 744 mmHg 50%
17:00 +25°C° 0 mm 4 mps 744 mmHg 52%
18:00 +23°C° 0 mm 4 mps 744 mmHg 55%
19:00 +22°C° 0 mm 3 mps 744 mmHg 59%
20:00 +21°C° 0 mm 3 mps 743 mmHg 62%
21:00 +20°C° 0 mm 3 mps 744 mmHg 63%
22:00 +19°C° 0 mm 3 mps 744 mmHg 63%
23:00 +19°C° 0 mm 3 mps 744 mmHg 64%

Tomorrow, 31 July, Saturday

Time Temperature Precipitation Wind Pressure Humidity
00:00 +18°C° 0 mm 3 mps 744 mmHg 67%
01:00 +18°C° 0 mm 3 mps 744 mmHg 70%
02:00 +17°C° 0 mm 3 mps 744 mmHg 73%
03:00 +17°C° 0 mm 2 mps 744 mmHg 75%
04:00 +16°C° 0 mm 2 mps 744 mmHg 77%
05:00 +16°C° 0 mm 2 mps 744 mmHg 80%
06:00 +18°C° 0 mm 2 mps 744 mmHg 74%
07:00 +20°C° 0 mm 2 mps 744 mmHg 69%
08:00 +21°C° 0 mm 2 mps 744 mmHg 64%
09:00 +24°C° 0 mm 2 mps 744 mmHg 58%
10:00 +26°C° 0 mm 2 mps 744 mmHg 53%
11:00 +27°C° 0 mm 2 mps 744 mmHg 47%
12:00 +28°C° 0 mm 2 mps 744 mmHg 45%
13:00 +29°C° 0 mm 2 mps 743 mmHg 43%
14:00 +30°C° 0 mm 2 mps 743 mmHg 41%
15:00 +28°C° 0 mm 3 mps 743 mmHg 48%
16:00 +26°C° 0 mm 4 mps 743 mmHg 55%
17:00 +25°C° 0 mm 4 mps 743 mmHg 62%
18:00 +22°C° 0.7 mm 4 mps 743 mmHg 72%
19:00 +20°C° 0.7 mm 3 mps 743 mmHg 82%
20:00 +18°C° 0.7 mm 2 mps 743 mmHg 92%
21:00 +18°C° 0 mm 3 mps 743 mmHg 93%
22:00 +18°C° 0 mm 3 mps 744 mmHg 94%
23:00 +17°C° 0 mm 3 mps 744 mmHg 95%

Day after tomorrow, 1 August, Sunday

Time Temperature Precipitation Wind Pressure Humidity
00:00 +17°C° 0 mm 3 mps 744 mmHg 96%
01:00 +17°C° 0 mm 3 mps 743 mmHg 96%
02:00 +17°C° 0 mm 3 mps 743 mmHg 96%
03:00 +17°C° 0 mm 3 mps 743 mmHg 96%
04:00 +16°C° 0 mm 3 mps 743 mmHg 96%
05:00 +16°C° 0 mm 3 mps 744 mmHg 96%
06:00 +17°C° 0 mm 2 mps 744 mmHg 88%
07:00 +19°C° 0 mm 2 mps 744 mmHg 80%
08:00 +20°C° 0 mm 2 mps 744 mmHg 72%
09:00 +23°C° 0 mm 2 mps 744 mmHg 64%
10:00 +24°C° 0 mm 3 mps 744 mmHg 56%
11:00 +26°C° 0 mm 3 mps 744 mmHg 48%
12:00 +26°C° 0 mm 3 mps 744 mmHg 49%
13:00 +26°C° 0 mm 2 mps 744 mmHg 49%
14:00 +27°C° 0 mm 2 mps 743 mmHg 50%
15:00 +25°C° 0.4 mm 2 mps 743 mmHg 59%
16:00 +22°C° 0.4 mm 3 mps 743 mmHg 68%
17:00 +20°C° 0.4 mm 3 mps 743 mmHg 77%
18:00 +19°C° 0.8 mm 3 mps 743 mmHg 82%
19:00 +18°C° 0.8 mm 4 mps 743 mmHg 88%
20:00 +16°C° 0.8 mm 5 mps 743 mmHg 93%
21:00 +17°C° 0.8 mm 4 mps 743 mmHg 94%
22:00 +15°C° 0.8 mm 4 mps 743 mmHg 95%
23:00 +14°C° 0.8 mm 3 mps 743 mmHg 96%

2 August, Monday

Time Temperature Precipitation Wind Pressure Humidity
00:00 +14°C° 0.1 mm 3 mps 743 mmHg 96%
01:00 +15°C° 0.1 mm 2 mps 743 mmHg 96%
02:00 +15°C° 0.1 mm 2 mps 743 mmHg 97%
03:00 +14°C° 0 mm 2 mps 743 mmHg 96%
04:00 +14°C° 0 mm 2 mps 743 mmHg 96%
05:00 +14°C° 0 mm 2 mps 743 mmHg 95%
06:00 +14°C° 0 mm 2 mps 743 mmHg 93%
07:00 +15°C° 0 mm 2 mps 743 mmHg 91%
08:00 +16°C° 0 mm 2 mps 743 mmHg 89%
09:00 +17°C° 0.1 mm 3 mps 743 mmHg 83%
10:00 +19°C° 0.1 mm 3 mps 744 mmHg 77%
11:00 +20°C° 0.1 mm 3 mps 744 mmHg 71%
12:00 +20°C° 0.6 mm 3 mps 744 mmHg 71%
13:00 +21°C° 0.6 mm 3 mps 744 mmHg 71%
14:00 +21°C° 0.6 mm 4 mps 744 mmHg 70%
15:00 +21°C° 0.2 mm 3 mps 744 mmHg 69%
16:00 +21°C° 0.2 mm 3 mps 744 mmHg 67%
17:00 +21°C° 0.2 mm 3 mps 744 mmHg 65%
18:00 +20°C° 0.2 mm 3 mps 744 mmHg 70%
19:00 +19°C° 0.2 mm 3 mps 744 mmHg 75%
20:00 +18°C° 0.2 mm 3 mps 744 mmHg 80%
21:00 +17°C° 0 mm 3 mps 745 mmHg 84%
22:00 +16°C° 0 mm 2 mps 745 mmHg 88%
23:00 +15°C° 0 mm 2 mps 746 mmHg 92%

3 August, Tuesday

Time Temperature Precipitation Wind Pressure Humidity
00:00 +15°C° 0 mm 2 mps 746 mmHg 93%
01:00 +14°C° 0 mm 2 mps 746 mmHg 93%
02:00 +14°C° 0 mm 2 mps 746 mmHg 94%
03:00 +13°C° 0 mm 2 mps 747 mmHg 94%
04:00 +13°C° 0 mm 2 mps 747 mmHg 94%
05:00 +12°C° 0 mm 2 mps 747 mmHg 94%
06:00 +14°C° 0 mm 2 mps 747 mmHg 88%
07:00 +15°C° 0 mm 2 mps 748 mmHg 83%
08:00 +17°C° 0 mm 2 mps 748 mmHg 78%
09:00 +17°C° 0 mm 3 mps 748 mmHg 72%
10:00 +18°C° 0 mm 3 mps 748 mmHg 67%
11:00 +19°C° 0 mm 4 mps 749 mmHg 61%
12:00 +20°C° 0 mm 4 mps 748 mmHg 56%
13:00 +21°C° 0 mm 4 mps 748 mmHg 51%
14:00 +22°C° 0 mm 4 mps 748 mmHg 45%
15:00 +22°C° 0 mm 4 mps 748 mmHg 47%
16:00 +22°C° 0 mm 4 mps 748 mmHg 48%
17:00 +21°C° 0 mm 4 mps 748 mmHg 50%
18:00 +20°C° 0 mm 3 mps 748 mmHg 54%
19:00 +19°C° 0 mm 2 mps 748 mmHg 59%
20:00 +18°C° 0 mm 2 mps 748 mmHg 63%
21:00 +17°C° 0 mm 2 mps 748 mmHg 65%
22:00 +18°C° 0 mm 1 mps 748 mmHg 66%
23:00 +16°C° 0 mm 1 mps 749 mmHg 68%

4 August, Wednesday

Time Temperature Precipitation Wind Pressure Humidity
00:00 +15°C° 0 mm 2 mps 749 mmHg 69%
01:00 +15°C° 0 mm 2 mps 749 mmHg 71%
02:00 +15°C° 0 mm 2 mps 749 mmHg 73%
03:00 +14°C° 0 mm 2 mps 749 mmHg 73%
04:00 +14°C° 0 mm 2 mps 749 mmHg 73%
05:00 +14°C° 0 mm 1 mps 749 mmHg 73%
06:00 +16°C° 0 mm 1 mps 749 mmHg 69%
07:00 +17°C° 0 mm 2 mps 749 mmHg 66%
08:00 +19°C° 0 mm 2 mps 749 mmHg 62%
09:00 +20°C° 0 mm 2 mps 749 mmHg 58%
10:00 +23°C° 0 mm 2 mps 749 mmHg 54%
11:00 +24°C° 0 mm 2 mps 749 mmHg 49%
12:00 +24°C° 0 mm 2 mps 748 mmHg 48%
13:00 +25°C° 0 mm 2 mps 748 mmHg 47%
14:00 +26°C° 0 mm 2 mps 748 mmHg 45%
15:00 +25°C° 0.1 mm 2 mps 748 mmHg 51%
16:00 +24°C° 0.1 mm 2 mps 748 mmHg 57%
17:00 +23°C° 0.1 mm 2 mps 747 mmHg 63%
18:00 +21°C° 0.4 mm 2 mps 747 mmHg 71%
19:00 +19°C° 0.4 mm 2 mps 748 mmHg 80%
20:00 +19°C° 0.4 mm 1 mps 748 mmHg 88%
21:00 +19°C° 0.1 mm 1 mps 748 mmHg 89%
22:00 +18°C° 0.1 mm 2 mps 748 mmHg 89%
23:00 +17°C° 0.1 mm 2 mps 747 mmHg 90%
Show more